TimeAKDT,TemperatureF,Dew PointF,Humidity,Sea Level PressureIn,VisibilityMPH,Wind Direction,Wind SpeedMPH,Gust SpeedMPH,PrecipitationIn,Events,Conditions,WindDirDegrees,DateUTC
12:53 AM,1.0,-9.9,60,30.00,10.0,WNW,5.8,-,N/A,,Clear,290,2014-04-10 08:53:00
1:53 AM,-0.9,-9.9,66,30.02,10.0,West,4.6,-,N/A,,Mostly Cloudy,280,2014-04-10 09:53:00
2:53 AM,-0.9,-9.9,66,30.04,10.0,Calm,Calm,-,N/A,,Clear,0,2014-04-10 10:53:00
3:53 AM,-7.1,-13.0,75,30.06,10.0,Calm,Calm,-,N/A,,Clear,0,2014-04-10 11:53:00
4:53 AM,-9.0,-15.0,75,30.08,10.0,Calm,Calm,-,N/A,,Clear,0,2014-04-10 12:53:00
5:53 AM,-11.0,-17.0,75,30.09,10.0,North,3.5,-,N/A,,Clear,10,2014-04-10 13:53:00
6:53 AM,-6.0,-13.0,72,30.10,10.0,WNW,4.6,-,N/A,,Clear,300,2014-04-10 14:53:00
7:53 AM,-4.0,-11.9,69,30.12,10.0,Calm,Calm,-,N/A,,Clear,0,2014-04-10 15:53:00
8:53 AM,3.9,-9.9,53,30.12,10.0,Calm,Calm,-,N/A,,Clear,0,2014-04-10 16:53:00
9:53 AM,6.1,-9.0,50,30.14,10.0,Calm,Calm,-,N/A,,Clear,0,2014-04-10 17:53:00
10:53 AM,10.9,-6.0,47,30.13,10.0,Calm,Calm,-,N/A,,Clear,0,2014-04-10 18:53:00
11:53 AM,12.9,-2.9,49,30.15,10.0,Variable,3.5,-,N/A,,Clear,0,2014-04-10 19:53:00
12:53 PM,17.1,-0.0,47,30.14,10.0,SE,4.6,-,N/A,,Clear,140,2014-04-10 20:53:00
1:53 PM,19.9,-0.0,42,30.14,10.0,ESE,9.2,-,N/A,,Clear,110,2014-04-10 21:53:00
2:53 PM,21.0,-0.0,40,30.14,10.0,SE,8.1,-,0.00,,Clear,130,2014-04-10 22:53:00
3:53 PM,24.1,1.0,37,30.14,10.0,ENE,5.8,-,N/A,,Clear,70,2014-04-10 23:53:00
4:53 PM,26.1,1.0,34,30.13,10.0,NNE,4.6,-,N/A,,Clear,20,2014-04-11 00:53:00
5:53 PM,27.0,-0.0,31,30.14,10.0,Calm,Calm,-,N/A,,Clear,0,2014-04-11 01:53:00
6:53 PM,26.1,-0.0,32,30.14,10.0,Calm,Calm,-,N/A,,Clear,0,2014-04-11 02:53:00
7:53 PM,25.0,1.0,36,30.14,10.0,Calm,Calm,-,N/A,,Clear,0,2014-04-11 03:53:00
8:53 PM,19.0,1.9,47,30.16,10.0,Calm,Calm,-,N/A,,Clear,0,2014-04-11 04:53:00
9:53 PM,12.0,-0.0,59,30.18,10.0,Calm,Calm,-,N/A,,Clear,0,2014-04-11 05:53:00
10:53 PM,10.0,-0.9,61,30.19,10.0,Calm,Calm,-,N/A,,Clear,0,2014-04-11 06:53:00
11:53 PM,3.9,-4.0,70,30.22,10.0,SSE,3.5,-,N/A,,Clear,150,2014-04-11 07:53:00